Location: Krasnoyarskiy Pitomnik
(51.1333°N, 71.6167°E)
Time: 18:09:28
(UTC+00:00)

Vanguard 2 - Pass Details

Date: 27 April 2024
Orbit: 553 x 2914 km, 32.9° (Epoch: 22 May)

Event Time Altitude Azimuth Distance (km) Brightness Sun altitude
Exits shadow 18:55:11 28° 147° (SSE) 3,740 10.5 -24.6°
Drops below altitude 10° 19:06:48 10° 104° (ESE) 5,601 11.7 -24.7°
Sets 19:12:19 0° 95° (E) 6,741 12.3 -24.7°
